EST,Max TemperatureF,Mean TemperatureF,Min TemperatureF,Max Dew PointF,MeanDew PointF,Min DewpointF,Max Humidity, Mean Humidity, Min Humidity, Max Sea Level PressureIn, Mean Sea Level PressureIn, Min Sea Level PressureIn, Max VisibilityMiles, Mean VisibilityMiles, Min VisibilityMiles, Max Wind SpeedMPH, Mean Wind SpeedMPH, Max Gust SpeedMPH,PrecipitationIn, CloudCover, Events, WindDirDegrees
2012-2-1,52,46,41,43,40,36,93,81,68,30.01,29.89,29.79,10,10,5,18,8,25,0.05,3,Rain,225
2012-2-2,44,38,33,37,31,25,93,76,63,30.12,30.00,29.95,10,10,4,18,10,26,0.00,5,Rain-Snow,4
2012-2-3,35,31,27,27,19,13,75,61,40,30.32,30.26,30.12,10,10,9,17,12,28,0.00,4,Snow,339
2012-2-4,43,38,30,27,21,14,69,54,45,30.25,30.15,30.09,10,10,10,15,8,22,0.00,3,,323
2012-2-5,34,26,19,18,17,15,85,62,50,30.13,30.09,30.07,10,10,10,13,7,17,0.00,1,,9
2012-2-6,45,34,24,33,26,16,74,64,49,30.07,29.95,29.86,10,10,2,23,12,30,0.00,0,,237
2012-2-7,46,36,27,32,27,22,92,62,44,30.19,30.00,29.89,10,10,9,15,8,21,0.00,1,,332
2012-2-8,36,30,24,27,22,16,77,64,50,30.31,30.20,30.07,10,10,10,13,7,23,0.00,3,,143
2012-2-9,42,33,24,30,23,17,100,72,37,30.10,30.02,29.96,10,8,1,13,5,22,0.00,3,Snow,339
2012-2-10,46,32,19,39,29,15,93,76,50,30.12,30.03,29.89,10,9,5,23,5,26,0.04,2,Rain,205
2012-2-11,42,38,33,39,32,26,96,89,70,29.88,29.62,29.42,10,6,0,23,8,33,0.29,8,Fog-Rain-Snow,358
2012-2-12,33,27,19,25,8,2,70,47,30,29.87,29.64,29.45,10,10,10,22,17,38,0.00,1,,313
2012-2-13,39,28,16,25,16,2,85,59,39,30.00,29.90,29.82,10,10,10,23,9,33,0.00,2,,253
2012-2-14,41,31,21,37,24,13,93,72,33,30.13,30.08,30.00,10,10,10,8,2,,0.00,5,,195
2012-2-15,46,42,37,41,39,36,100,91,76,30.21,30.15,30.10,10,8,1,6,3,,0.05,8,Rain,24
2012-2-16,46,37,28,38,33,27,100,90,62,30.27,30.20,30.07,10,5,0,10,1,,0.01,4,Fog-Rain,250
2012-2-17,48,42,37,43,38,21,97,87,49,30.06,29.92,29.82,10,7,2,13,4,20,0.03,7,Rain,211
2012-2-18,46,40,33,29,23,17,67,56,33,29.96,29.90,29.85,10,10,10,18,10,28,0.00,1,,267
2012-2-19,39,32,24,28,24,21,89,66,47,30.02,29.99,29.94,10,10,10,17,8,23,0.00,0,,350
2012-2-20,37,35,32,24,19,14,64,54,41,30.27,30.07,29.95,10,10,10,18,11,29,0.00,2,,355
2012-2-21,41,32,23,39,26,17,93,69,43,30.34,30.17,29.88,10,9,3,15,6,23,0.16,2,Rain,215
2012-2-22,51,43,35,43,37,34,100,88,61,29.87,29.73,29.59,10,6,1,20,3,30,0.01,2,Rain,208
2012-2-23,57,48,36,46,40,23,100,80,36,29.78,29.47,29.37,10,7,0,21,7,28,0.11,5,Fog-Rain,221
2012-2-24,46,38,30,46,36,23,100,91,64,29.80,29.56,29.11,10,6,1,18,3,25,0.48,8,Rain-Snow,116
2012-2-25,46,40,32,40,23,16,89,53,33,29.76,29.42,29.18,10,10,10,34,21,44,0.00,3,Rain,263
2012-2-26,42,34,25,17,7,1,57,35,20,30.44,30.19,29.81,10,10,10,17,12,31,0.00,0,,294
2012-2-27,48,34,19,38,26,5,82,62,35,30.46,30.28,30.02,10,10,10,20,6,25,0.00,3,,208
2012-2-28,46,38,28,38,26,19,76,55,39,30.38,30.22,30.00,10,10,10,15,10,25,0.00,1,,334
2012-2-29,41,34,26,37,29,21,96,83,51,30.37,30.17,29.86,10,6,1,12,4,24,0.31,7,Rain-Snow,68